DELTA 1 DEB, 3126

Orbit data source: Space-Track

DELTA 1 DEB, 3126 is space debris in LEO originally from a launch on Thu, 11 Jan 1968 UTC launched from the Air Force Western Test Range (AFWTR). Debris objects in space refer to the collection of defunct objects orbiting the Earth. Examples of debris include non-operational satellites, rocket bodies, and fragments generated from explosions, collisions, or faulty payload assembly.

Loading next visibility...
Identifier
3126, 1968-002C
Orbit
LEO
Last TLE update
13 hours ago
Origin
Manufacturer
Unknown
Mission
Spacecraft
Bus & Motor
Unknown
Mass
Unknown
Launch date (UTC)
1968-01-11 (57 years ago)
Launch vehicle
Unknown
Launch site
Air Force Western Test Range (AFWTR)
Object type
Payload
Rocket body
Debris
Shape & HBR
Unknown
Radar Cross Section
Small (<0.1 m²)

Expand to show TLE details & history

TLE from 13 hours ago
0 DELTA 1 DEB
1 03126U 68002C   25182.68527622 -.00000042  00000-0  12031-3 0  9991
2 03126 106.0720 339.4307 0321751 357.1337  22.9853 12.82445922689356
Epoch: 2025-07-01T16:26Z
TLE epoch observation values (Epoch: 2025-07-01T16:26:47.865Z)
Latitude
20.74276°
Longitude
166.52235°
Altitude
1,106.616 km
Speed
7.408 km/s
True Right ascension
22h 12m 47s
True Declination
20° 38' 04"
Sunlit
Object was in daylight at epoch
Visualization orbit readout
Latitude
-29.14725°
Longitude
-177.28677°
Altitude
1,118.489 km
Speed
7.398 km/s
Apparent Right ascension
01h 38m 05s
Apparent Declination
-42° 14' 10"
Sunlit
Object is in daylight
Visualization observer readout
Local Sidereal Time
16:59:24
Azimuth
110.43° ESE
Elevation
-52.546°
Doppler factor
1
Orbital elements
Apogee altitude
1,577.446 km
Perigee altitude
1,081.461 km
Semi-major axis
7,707.591 km
Eccentricity
0.03218
Inclination
106.072°
RAAN
339.4307°
Arg. of periapsis
357.1337°
True anomaly
Unknown
Mean anomaly
22.9853°
Eccentric anomaly
Unknown
Mean motion
3.20749 °/min
Orbital period
112.24 mins
BSTAR
0.00012031
Loading maneuver chart data...
Loading SW <> Apogee altitude chart data...
Loading historical data...
Loading historical data...
Loading historical data...
Loading historical data...
Loading historical data...
Loading historical data...
Loading historical data...

DELTA 1 DEB Visibility forecast

Observer location: undefined°, undefined°

Span
Click to sort rows by Start time (UTC) header in descending order
Start Az.
Max El. time (UTC)
Max El. Az.
Max El.
End time (UTC)
End Az.
11 mins2025-07-02 09:19:51.883Z127.268° SE2025-07-02 09:24:51.883Z55.403° ENE37.854°2025-07-02 09:30:51.883Z347.968° N
9 mins2025-07-02 11:10:51.883Z210.083° SW2025-07-02 11:14:51.883Z258.989° W25.978°2025-07-02 11:19:51.883Z311.685° NW
14 mins2025-07-02 22:54:51.883Z40.695° NE2025-07-02 23:00:51.883Z98.427° ESE35.378°2025-07-02 23:08:51.883Z174.936° S
14 mins2025-07-03 00:44:51.883Z6.498° NNE2025-07-03 00:50:51.883Z301.486° NW36.375°2025-07-03 00:58:51.883Z233.598° WSW
4 mins2025-07-03 02:36:51.883Z335.36° NNW2025-07-03 02:38:51.883Z320.466° NNW12.166°2025-07-03 02:40:51.883Z306.076° NW
|